Tracking 30995 objects as of 5-Jul-2025
HD Live streaming from Space Station
objects crossing your sky now

FENGYUN 1C DEB

Track FENGYUN 1C DEB now!
10-day predictions


NORAD ID: 29885
Int'l Code: 1999-025GF
Perigee: 770.1 km
Apogee: 939.4 km
Inclination: 98.3 °
Period: 101.9 minutes
Semi major axis: 7225 km
RCS: 0.04 m2 (small)
Launch date: May 10, 1999
Source: People's Republic of China (PRC)
Launch site: Taiyaun Space Center, China (TSC)

Note: This is SATELLITE DEBRIS
Your satellite tracking list
Your tracking list is empty




NASA's NSSDC Master Catalog

Two Line Element Set (TLE):
1 29885U 99025GF  25185.77589332  .00000161  00000-0  10055-3 0  9994
2 29885  98.3345 131.5301 0117121 268.5488 153.6223 14.13446276951830
Source of the keplerian elements: AFSPC